This is the latest recevied weather packets stored in our database for station/object KI6SYE. If no packets are shown the sender has not sent any weather packets the latest 10 day(s).
| Time | Temp. | Humidity | Pressure | Rain* | Wind** | Luminosity | Snow |
|---|---|---|---|---|---|---|---|
| 1788280659 | 20.56° C | 80% | 1015.6 hPa | 0 mm | - | 512 W/m² | - |
| 1788280358 | 21.11° C | 79% | 1015.6 hPa | 0 mm | - | 260 W/m² | - |
| 1788280054 | 20.56° C | 80% | 1015.5 hPa | 0 mm | - | 261 W/m² | - |
| 1788279753 | 20.56° C | 82% | 1015.7 hPa | 0 mm | - | 242 W/m² | - |
| 1788279452 | 20.56° C | 80% | 1015.6 hPa | 0 mm | - | 206 W/m² | - |
| 1788279147 | 20.56° C | 81% | 1015.5 hPa | 0 mm | - | 243 W/m² | - |
| 1788278843 | 20.56° C | 81% | 1015.5 hPa | 0 mm | - | 179 W/m² | - |
| 1788278538 | 20.56° C | 82% | 1015.5 hPa | 0 mm | - | 176 W/m² | - |
| 1788278237 | 20° C | 82% | 1015.6 hPa | 0 mm | - | 169 W/m² | - |
| 1788277932 | 20° C | 82% | 1015.5 hPa | 0 mm | - | 162 W/m² | - |
| 1788277627 | 20.56° C | 82% | 1015.5 hPa | 0 mm | - | 146 W/m² | - |
| 1788277317 | 20.56° C | 82% | 1015.4 hPa | 0 mm | - | 148 W/m² | - |
| 1788277012 | 20° C | 83% | 1015.6 hPa | 0 mm | - | 152 W/m² | - |
| 1788276711 | 20° C | 83% | 1015.4 hPa | 0 mm | - | 157 W/m² | - |
| 1788276406 | 20.56° C | 82% | 1015.4 hPa | 0 mm | - | 140 W/m² | - |
| 1788276105 | 20.56° C | 82% | 1015.3 hPa | 0 mm | - | 151 W/m² | - |
| 1788275801 | 20.56° C | 82% | 1015.3 hPa | 0 mm | - | 184 W/m² | - |
| 1788275500 | 20.56° C | 82% | 1015.5 hPa | 0 mm | - | 182 W/m² | - |
| 1788275199 | 20.56° C | 82% | 1015.3 hPa | 0 mm | - | 152 W/m² | - |
| 1788274898 | 20.56° C | 83% | 1015.2 hPa | 0 mm | - | 152 W/m² | - |
| 1788274596 | 20° C | 83% | 1015.1 hPa | 0 mm | - | 141 W/m² | - |
| 1788274290 | 20° C | 84% | 1015.2 hPa | 0 mm | - | 113 W/m² | - |
| 1788273986 | 20° C | 84% | 1015.1 hPa | 0 mm | - | 64 W/m² | - |
| 1788273681 | 19.44° C | 85% | 1014.8 hPa | 0 mm | - | 94 W/m² | - |
| 1788273376 | 19.44° C | 86% | 1014.9 hPa | 0 mm | - | 66 W/m² | - |
* Rain latest hour (hover to see other rain measurements)
** Current wind speed in m/s (hover to see current wind gust speed)